TimeCDT,TemperatureF,Dew PointF,Humidity,Sea Level PressureIn,VisibilityMPH,Wind Direction,Wind SpeedMPH,Gust SpeedMPH,PrecipitationIn,Events,Conditions,WindDirDegrees,DateUTC
12:15 AM,79.3,71.6,77,29.82,10.0,SSE,8.1,-,N/A,,Clear,150,2013-09-09 05:15:00
12:35 AM,78.3,71.6,80,29.82,10.0,South,8.1,-,N/A,,Clear,170,2013-09-09 05:35:00
12:55 AM,77.0,71.6,83,29.82,10.0,South,8.1,-,N/A,,Clear,180,2013-09-09 05:55:00
1:15 AM,76.6,71.1,83,29.82,10.0,South,8.1,-,N/A,,Clear,180,2013-09-09 06:15:00
1:35 AM,76.8,70.3,80,29.82,10.0,South,8.1,-,N/A,,Clear,180,2013-09-09 06:35:00
1:55 AM,77.0,68.9,76,29.82,10.0,South,9.2,-,N/A,,Clear,180,2013-09-09 06:55:00
2:15 AM,76.3,68.4,76,29.81,10.0,South,9.2,-,N/A,,Clear,180,2013-09-09 07:15:00
2:35 AM,77.0,67.1,71,29.81,10.0,South,10.4,-,N/A,,Clear,190,2013-09-09 07:35:00
2:55 AM,77.5,65.8,67,29.81,10.0,SSW,12.7,-,N/A,,Clear,200,2013-09-09 07:55:00
3:15 AM,78.1,64.6,63,29.81,10.0,South,11.5,-,N/A,,Clear,190,2013-09-09 08:15:00
3:35 AM,77.5,64.4,64,29.82,10.0,SSW,11.5,-,N/A,,Clear,200,2013-09-09 08:35:00
3:55 AM,77.7,63.5,61,29.82,10.0,SSW,11.5,-,N/A,,Clear,200,2013-09-09 08:55:00
4:15 AM,77.5,62.8,60,29.82,10.0,SSW,11.5,-,N/A,,Clear,200,2013-09-09 09:15:00
4:35 AM,77.4,62.1,59,29.82,10.0,SSW,11.5,-,N/A,,Clear,200,2013-09-09 09:35:00
4:55 AM,78.1,61.2,56,29.82,10.0,SSW,11.5,-,N/A,,Clear,200,2013-09-09 09:55:00
5:15 AM,77.7,61.2,57,29.83,10.0,SSW,10.4,-,N/A,,Clear,200,2013-09-09 10:15:00
5:35 AM,77.9,60.8,56,29.83,10.0,SSW,10.4,-,N/A,,Clear,200,2013-09-09 10:35:00
5:55 AM,77.4,60.6,56,29.83,10.0,SSW,9.2,-,N/A,,Clear,200,2013-09-09 10:55:00
6:15 AM,76.6,60.8,58,29.83,10.0,South,6.9,-,N/A,,Clear,190,2013-09-09 11:15:00
6:35 AM,74.7,61.2,63,29.83,10.0,South,6.9,-,N/A,,Clear,180,2013-09-09 11:35:00
6:55 AM,74.1,61.0,63,29.84,10.0,South,6.9,-,N/A,,Clear,180,2013-09-09 11:55:00
7:15 AM,73.4,61.3,66,29.84,10.0,South,6.9,-,N/A,,Clear,180,2013-09-09 12:15:00
7:35 AM,73.2,61.7,67,29.85,10.0,South,6.9,-,N/A,,Clear,170,2013-09-09 12:35:00
7:55 AM,74.1,61.9,65,29.85,10.0,South,5.8,-,N/A,,Clear,170,2013-09-09 12:55:00
8:15 AM,75.2,62.4,64,29.85,10.0,South,8.1,-,N/A,,Clear,180,2013-09-09 13:15:00
8:35 AM,76.5,62.8,62,29.85,10.0,South,9.2,-,N/A,,Clear,180,2013-09-09 13:35:00
8:55 AM,78.8,62.2,57,29.86,10.0,South,6.9,-,N/A,,Clear,190,2013-09-09 13:55:00
9:15 AM,81.3,61.9,52,29.86,10.0,SW,4.6,-,N/A,,Clear,220,2013-09-09 14:15:00
9:35 AM,82.9,61.3,48,29.86,10.0,SW,9.2,-,N/A,,Clear,220,2013-09-09 14:35:00
9:55 AM,84.9,61.2,45,29.86,10.0,SW,10.4,16.1,N/A,,Clear,220,2013-09-09 14:55:00
10:15 AM,87.1,60.4,41,29.85,10.0,SSW,13.8,-,N/A,,Clear,210,2013-09-09 15:15:00
10:35 AM,88.9,60.3,38,29.85,10.0,SW,13.8,21.9,N/A,,Clear,220,2013-09-09 15:35:00
10:55 AM,90.7,59.2,35,29.85,10.0,SW,12.7,19.6,N/A,,Clear,220,2013-09-09 15:55:00
11:15 AM,91.9,59.0,33,29.85,10.0,SSW,17.3,24.2,N/A,,Clear,210,2013-09-09 16:15:00
11:35 AM,93.4,58.3,31,29.85,10.0,SW,13.8,21.9,N/A,,Clear,220,2013-09-09 16:35:00
11:55 AM,94.5,59.2,31,29.84,10.0,South,13.8,20.7,N/A,,Clear,190,2013-09-09 16:55:00
12:15 PM,95.2,58.8,30,29.84,10.0,South,15.0,21.9,N/A,,Clear,190,2013-09-09 17:15:00
12:35 PM,95.7,58.8,29,29.84,10.0,South,18.4,23.0,N/A,,Clear,190,2013-09-09 17:35:00
12:55 PM,96.4,57.9,28,29.84,10.0,SSW,15.0,26.5,N/A,,Clear,210,2013-09-09 17:55:00
1:15 PM,96.6,57.9,27,29.83,10.0,SSW,15.0,25.3,0.03,,Clear,210,2013-09-09 18:15:00
1:35 PM,97.3,57.2,26,29.83,10.0,SSW,16.1,27.6,0.03,,Clear,210,2013-09-09 18:35:00
1:55 PM,97.3,57.7,27,29.83,-9999.0,South,19.6,25.3,0.03,,Clear,190,2013-09-09 18:55:00
2:15 PM,101.7,56.7,22,29.83,10.0,SSW,18.4,25.3,N/A,,Clear,210,2013-09-09 19:15:00
2:55 PM,98.4,56.3,24,29.82,10.0,SSW,17.3,24.2,N/A,,Clear,200,2013-09-09 19:55:00
3:15 PM,97.9,56.1,25,29.82,10.0,SSW,17.3,26.5,N/A,,Clear,200,2013-09-09 20:15:00
3:35 PM,98.1,55.0,24,29.82,10.0,South,21.9,26.5,N/A,,Clear,190,2013-09-09 20:35:00
3:55 PM,97.7,55.4,24,29.81,10.0,SSW,19.6,23.0,N/A,,Clear,210,2013-09-09 20:55:00
4:15 PM,98.1,53.4,22,29.81,10.0,SSW,19.6,25.3,N/A,,Clear,210,2013-09-09 21:15:00
4:35 PM,97.9,53.1,22,29.81,10.0,South,21.9,28.8,N/A,,Clear,190,2013-09-09 21:35:00
4:55 PM,97.2,54.3,24,29.81,10.0,SSW,17.3,27.6,N/A,,Clear,200,2013-09-09 21:55:00
5:15 PM,96.8,53.4,23,29.81,10.0,SSW,13.8,25.3,N/A,,Clear,200,2013-09-09 22:15:00
5:35 PM,95.9,56.1,26,29.81,10.0,South,13.8,23.0,N/A,,Clear,190,2013-09-09 22:35:00
5:55 PM,95.2,54.3,25,29.82,10.0,South,17.3,24.2,N/A,,Clear,190,2013-09-09 22:55:00
6:15 PM,94.5,54.0,25,29.82,10.0,South,16.1,25.3,N/A,,Clear,190,2013-09-09 23:15:00
6:35 PM,93.4,55.8,28,29.82,10.0,SSW,12.7,17.3,N/A,,Clear,200,2013-09-09 23:35:00
6:55 PM,91.6,56.8,31,29.83,10.0,South,11.5,18.4,N/A,,Clear,190,2013-09-09 23:55:00
7:15 PM,88.5,58.5,36,29.83,10.0,South,10.4,-,N/A,,Clear,180,2013-09-10 00:15:00
7:35 PM,86.7,58.1,38,29.83,10.0,South,9.2,-,N/A,,Clear,180,2013-09-10 00:35:00
7:55 PM,84.9,58.5,41,29.84,10.0,South,11.5,-,N/A,,Clear,170,2013-09-10 00:55:00
8:15 PM,83.7,59.0,43,29.84,10.0,South,11.5,-,N/A,,Clear,180,2013-09-10 01:15:00
8:35 PM,82.9,59.2,44,29.85,10.0,South,11.5,-,N/A,,Clear,180,2013-09-10 01:35:00
8:55 PM,81.7,59.4,47,29.85,10.0,South,11.5,-,N/A,,Clear,180,2013-09-10 01:55:00
9:15 PM,80.6,59.7,49,29.86,10.0,South,11.5,-,N/A,,Clear,180,2013-09-10 02:15:00
9:35 PM,80.4,59.9,49,29.86,10.0,South,11.5,-,N/A,,Clear,170,2013-09-10 02:35:00
9:55 PM,79.7,60.8,52,29.86,10.0,South,9.2,-,N/A,,Clear,170,2013-09-10 02:55:00
10:15 PM,78.8,61.3,55,29.87,10.0,South,11.5,-,N/A,,Clear,170,2013-09-10 03:15:00
10:35 PM,78.3,61.5,56,29.86,10.0,South,11.5,-,N/A,,Clear,170,2013-09-10 03:35:00
10:55 PM,78.8,60.4,53,29.87,10.0,South,11.5,-,N/A,,Clear,170,2013-09-10 03:55:00
11:15 PM,78.4,59.7,52,29.88,10.0,South,12.7,-,N/A,,Clear,170,2013-09-10 04:15:00
11:35 PM,78.3,59.0,51,29.88,10.0,South,11.5,-,N/A,,Clear,170,2013-09-10 04:35:00
11:55 PM,77.9,58.5,51,29.88,10.0,South,10.4,-,N/A,,Clear,180,2013-09-10 04:55:00